| time (UTC) | temp F | wind direction | speed knots | gust knots | rain 1hr in | rain 24hr in | rain mn in | humidity % | barometer mb |
| 20260509233620 | 53 | 339 | 0.0 | 1.7 | 0.00 | 0.37 | 0.37 | 99 | 1005.2 |
| 20260509233117 | 53 | 58 | 0.9 | 1.7 | 0.00 | 0.37 | 0.37 | 98 | 1005.2 |
| 20260509232613 | 53 | 336 | 0.0 | 1.7 | 0.00 | 0.37 | 0.37 | 98 | 1005.3 |
| 20260509232111 | 53 | 332 | 0.9 | 1.7 | 0.00 | 0.37 | 0.37 | 98 | 1005.3 |
| 20260509231607 | 54 | 322 | 0.9 | 1.7 | 0.00 | 0.37 | 0.37 | 97 | 1005.2 |
| 20260509231105 | 55 | 326 | 0.0 | 1.7 | 0.00 | 0.37 | 0.37 | 95 | 1005.1 |
| 20260509230601 | 55 | 76 | 0.0 | 1.7 | 0.00 | 0.37 | 0.37 | 93 | 1005.0 |
| 20260509230059 | 55 | 83 | 0.9 | 1.7 | 0.00 | 0.37 | 0.37 | 93 | 1005.0 |
| 20260509225554 | 55 | 97 | 1.7 | 2.6 | 0.00 | 0.37 | 0.37 | 93 | 1005.2 |
| 20260509225050 | 55 | 60 | 0.9 | 2.6 | 0.00 | 0.37 | 0.37 | 94 | 1005.1 |
| 20260509224545 | 55 | 29 | 0.9 | 2.6 | 0.00 | 0.37 | 0.37 | 93 | 1005.3 |
| 20260509224043 | 55 | 48 | 0.0 | 2.6 | 0.00 | 0.37 | 0.37 | 92 | 1005.6 |
| 20260509223539 | 56 | 122 | 3.5 | 3.5 | 0.00 | 0.37 | 0.37 | 93 | 1005.5 |
| 20260509223037 | 55 | 337 | 0.0 | 1.7 | 0.00 | 0.37 | 0.37 | 94 | 1005.5 |
| 20260509222533 | 55 | 240 | 2.6 | 3.5 | 0.00 | 0.37 | 0.37 | 94 | 1005.4 |
| 20260509222029 | 55 | 218 | 0.9 | 1.7 | 0.00 | 0.37 | 0.37 | 94 | 1005.2 |
| 20260509221525 | 55 | 202 | 4.3 | 4.3 | 0.00 | 0.37 | 0.37 | 94 | 1005.2 |
| 20260509221021 | 55 | 323 | 1.7 | 3.5 | 0.00 | 0.37 | 0.37 | 95 | 1005.2 |
| 20260509220517 | 55 | 201 | 1.7 | 4.3 | 0.00 | 0.37 | 0.37 | 95 | 1005.2 |
| 20260509220014 | 55 | 203 | 1.7 | 5.2 | 0.00 | 0.37 | 0.37 | 94 | 1005.4 |
| 20260509215509 | 55 | 207 | 1.7 | 2.6 | 0.00 | 0.37 | 0.37 | 95 | 1005.4 |
| 20260509215007 | 55 | 214 | 0.0 | 1.7 | 0.00 | 0.37 | 0.37 | 95 | 1005.5 |
| 20260509214504 | 55 | 194 | 0.9 | 2.6 | 0.00 | 0.37 | 0.37 | 95 | 1005.3 |
| 20260509214000 | 55 | 126 | 1.7 | 4.3 | 0.00 | 0.37 | 0.37 | 95 | 1005.6 |
| 20260509213456 | 55 | 182 | 1.7 | 2.6 | 0.00 | 0.37 | 0.37 | 95 | 1005.4 |
| 20260509212954 | 55 | 243 | 0.0 | 3.5 | 0.00 | 0.37 | 0.37 | 95 | 1005.4 |
| 20260509212451 | 55 | 216 | 1.7 | 3.5 | 0.00 | 0.37 | 0.37 | 95 | 1005.7 |
| 20260509211947 | 55 | 49 | 0.9 | 5.2 | 0.00 | 0.37 | 0.37 | 96 | 1005.6 |
| 20260509211442 | 55 | 230 | 0.9 | 3.5 | 0.00 | 0.37 | 0.37 | 97 | 1005.6 |
| 20260509210939 | 55 | 243 | 3.5 | 4.3 | 0.00 | 0.37 | 0.37 | 96 | 1005.7 |
| 20260509210437 | 55 | 258 | 2.6 | 3.5 | 0.00 | 0.37 | 0.37 | 97 | 1005.8 |
| 20260509205933 | 54 | 53 | 1.7 | 3.5 | 0.00 | 0.37 | 0.37 | 98 | 1005.9 |
| 20260509205433 | 54 | 355 | 2.6 | 3.5 | 0.00 | 0.37 | 0.37 | 98 | 1005.8 |
| 20260509204929 | 54 | 258 | 1.7 | 1.7 | 0.00 | 0.37 | 0.37 | 99 | 1006.0 |
| 20260509204425 | 53 | 177 | 0.0 | 1.7 | 0.02 | 0.37 | 0.37 | 99 | 1006.0 |
| 20260509203922 | 53 | 156 | 0.0 | 2.6 | 0.02 | 0.37 | 0.37 | 99 | 1006.0 |
| 20260509203418 | 53 | 36 | 0.0 | 2.6 | 0.00 | 0.36 | 0.36 | 99 | 1006.1 |
| 20260509202915 | 53 | 97 | 1.7 | 2.6 | 0.00 | 0.36 | 0.36 | 99 | 1006.0 |
| 20260509202411 | 53 | 88 | 0.9 | 2.6 | 0.00 | 0.36 | 0.36 | 99 | 1006.1 |
| 20260509201907 | 53 | 122 | 1.7 | 1.7 | 0.00 | 0.36 | 0.36 | 99 | 1006.3 |
| 20260509201402 | 53 | 106 | 0.0 | 1.7 | 0.00 | 0.36 | 0.36 | 99 | 1006.2 |
| 20260509200859 | 52 | 77 | 0.0 | 2.6 | 0.00 | 0.36 | 0.36 | 99 | 1006.3 |
| 20260509200354 | 53 | 47 | 1.7 | 1.7 | 0.00 | 0.36 | 0.36 | 99 | 1006.3 |
| 20260509195851 | 52 | 41 | 1.7 | 3.5 | 0.00 | 0.36 | 0.36 | 99 | 1006.3 |
| 20260509195346 | 52 | 107 | 1.7 | 1.7 | 0.02 | 0.36 | 0.36 | 99 | 1006.4 |
| 20260509194845 | 52 | 72 | 0.0 | 1.7 | 0.00 | 0.36 | 0.36 | 99 | 1006.6 |
| 20260509194342 | 52 | 232 | 0.0 | 1.7 | 0.00 | 0.36 | 0.36 | 99 | 1006.6 |
| 20260509193838 | 52 | 100 | 0.9 | 0.9 | 0.00 | 0.36 | 0.36 | 99 | 1006.6 |
| 20260509193338 | 52 | 24 | 0.0 | 1.7 | 0.00 | 0.36 | 0.36 | 99 | 1006.6 |
| 20260509192835 | 52 | 41 | 0.9 | 2.6 | 0.00 | 0.36 | 0.36 | 99 | 1006.8 |
| 20260509192331 | 52 | 100 | 0.9 | 2.6 | 0.00 | 0.36 | 0.36 | 99 | 1006.8 |
| 20260509191826 | 52 | 98 | 1.7 | 1.7 | 0.00 | 0.36 | 0.36 | 99 | 1006.8 |
| 20260509191322 | 52 | 63 | 1.7 | 1.7 | 0.02 | 0.36 | 0.36 | 99 | 1006.9 |
| 20260509190818 | 52 | 86 | 1.7 | 1.7 | 0.02 | 0.36 | 0.36 | 99 | 1006.8 |
| 20260509190315 | 52 | 173 | 1.7 | 2.6 | 0.05 | 0.35 | 0.35 | 99 | 1006.9 |
| 20260509185813 | 52 | 94 | 0.9 | 2.6 | 0.02 | 0.35 | 0.35 | 99 | 1007.1 |
| 20260509185308 | 52 | 135 | 0.9 | 2.6 | 0.05 | 0.35 | 0.35 | 98 | 1006.9 |
| 20260509184806 | 52 | 83 | 0.9 | 3.5 | 0.07 | 0.35 | 0.35 | 98 | 1007.0 |
| 20260509184303 | 52 | 134 | 1.7 | 2.6 | 0.02 | 0.34 | 0.34 | 98 | 1006.8 |
| 20260509183759 | 52 | 87 | 1.7 | 1.7 | 0.00 | 0.34 | 0.34 | 98 | 1006.9 |
| 20260509183255 | 52 | 82 | 0.0 | 2.6 | 0.00 | 0.34 | 0.34 | 98 | 1006.9 |
| 20260509182750 | 52 | 335 | 0.9 | 2.6 | 0.02 | 0.34 | 0.34 | 98 | 1006.9 |
| 20260509182248 | 52 | 253 | 1.7 | 2.6 | 0.02 | 0.34 | 0.34 | 98 | 1006.8 |
| 20260509181745 | 52 | 117 | 0.9 | 1.7 | 0.00 | 0.33 | 0.33 | 98 | 1006.8 |
| 20260509181243 | 52 | 119 | 0.9 | 2.6 | 0.00 | 0.33 | 0.33 | 97 | 1007.0 |
| 20260509180740 | 52 | 14 | 2.6 | 4.3 | 0.00 | 0.33 | 0.33 | 96 | 1006.9 |
| 20260509180236 | 53 | 266 | 2.6 | 8.7 | 0.00 | 0.33 | 0.33 | 95 | 1006.8 |
| 20260509175733 | 53 | 88 | 1.7 | 3.5 | 0.00 | 0.33 | 0.33 | 96 | 1006.9 |
| 20260509175229 | 53 | 70 | 0.0 | 4.3 | 0.00 | 0.33 | 0.33 | 96 | 1006.7 |
| 20260509174725 | 53 | 237 | 2.6 | 5.2 | 0.00 | 0.33 | 0.33 | 96 | 1006.7 |
| 20260509174220 | 52 | 139 | 1.7 | 4.3 | 0.00 | 0.33 | 0.33 | 96 | 1006.8 |
| 20260509173717 | 52 | 215 | 5.2 | 5.2 | 0.00 | 0.33 | 0.33 | 97 | 1006.8 |
| 20260509173212 | 52 | 169 | 1.7 | 5.2 | 0.00 | 0.33 | 0.33 | 97 | 1006.9 |
| 20260509172708 | 52 | 13 | 0.0 | 3.5 | 0.00 | 0.33 | 0.33 | 98 | 1006.8 |
| 20260509172205 | 51 | 180 | 1.7 | 5.2 | 0.00 | 0.33 | 0.33 | 98 | 1006.7 |
| 20260509171700 | 51 | 111 | 0.9 | 4.3 | 0.00 | 0.33 | 0.33 | 99 | 1006.6 |
| 20260509171157 | 51 | 127 | 1.7 | 1.7 | 0.00 | 0.33 | 0.33 | 99 | 1006.5 |
| 20260509170654 | 51 | 172 | 0.9 | 2.6 | 0.00 | 0.33 | 0.33 | 99 | 1006.8 |
| 20260509170150 | 51 | 75 | 1.7 | 1.7 | 0.00 | 0.33 | 0.33 | 99 | 1006.8 |
| 20260509165648 | 51 | 164 | 0.9 | 1.7 | 0.00 | 0.33 | 0.33 | 99 | 1006.7 |
| 20260509165144 | 51 | 119 | 0.9 | 5.2 | 0.00 | 0.33 | 0.33 | 99 | 1007.0 |
| 20260509164640 | 51 | 218 | 2.6 | 3.5 | 0.00 | 0.33 | 0.33 | 99 | 1006.9 |
| 20260509164136 | 51 | 132 | 0.9 | 1.7 | 0.00 | 0.33 | 0.33 | 99 | 1007.0 |
| 20260509163634 | 51 | 111 | 2.6 | 2.6 | 0.02 | 0.33 | 0.33 | 99 | 1006.8 |
| 20260509163129 | 51 | 88 | 1.7 | 1.7 | 0.02 | 0.33 | 0.33 | 99 | 1007.1 |
| 20260509162627 | 51 | 60 | 1.7 | 3.5 | 0.00 | 0.33 | 0.33 | 99 | 1007.1 |
| 20260509162123 | 51 | 193 | 1.7 | 2.6 | 0.02 | 0.33 | 0.33 | 99 | 1007.0 |
| 20260509161619 | 51 | 118 | 1.7 | 2.6 | 0.02 | 0.33 | 0.33 | 99 | 1007.1 |
| 20260509161114 | 51 | 262 | 1.7 | 2.6 | 0.00 | 0.32 | 0.32 | 99 | 1007.1 |
| 20260509160610 | 51 | 35 | 0.9 | 2.6 | 0.00 | 0.32 | 0.32 | 99 | 1007.2 |
| 20260509160105 | 51 | 284 | 2.6 | 4.3 | 0.00 | 0.32 | 0.32 | 99 | 1007.4 |
| 20260509155602 | 52 | 0 | 0.0 | 2.6 | 0.00 | 0.32 | 0.32 | 99 | 1007.5 |
| 20260509155058 | 51 | 135 | 0.0 | 4.3 | 0.00 | 0.32 | 0.32 | 99 | 1007.4 |
| 20260509154554 | 51 | 78 | 2.6 | 2.6 | 0.00 | 0.32 | 0.32 | 99 | 1007.6 |
| 20260509154052 | 51 | 106 | 1.7 | 4.3 | 0.00 | 0.32 | 0.32 | 99 | 1007.5 |
| 20260509153549 | 51 | 240 | 1.7 | 3.5 | 0.00 | 0.32 | 0.32 | 99 | 1007.6 |
| 20260509153046 | 51 | 96 | 0.9 | 1.7 | 0.00 | 0.32 | 0.32 | 99 | 1007.6 |
| 20260509152542 | 51 | 147 | 0.0 | 3.5 | 0.00 | 0.32 | 0.32 | 99 | 1007.5 |
| 20260509152039 | 51 | 18 | 1.7 | 2.6 | 0.02 | 0.32 | 0.32 | 99 | 1007.8 |
| 20260509151535 | 51 | 114 | 1.7 | 2.6 | 0.02 | 0.32 | 0.32 | 99 | 1007.9 |
| 20260509151033 | 51 | 143 | 0.0 | 3.5 | 0.00 | 0.32 | 0.32 | 99 | 1008.0 |
| 20260509150530 | 51 | 296 | 0.9 | 2.6 | 0.00 | 0.32 | 0.32 | 99 | 1007.8 |
| 20260509150029 | 51 | 6 | 0.9 | 2.6 | 0.02 | 0.32 | 0.32 | 99 | 1007.7 |
| 20260509145524 | 51 | 87 | 0.9 | 1.7 | 0.02 | 0.32 | 0.32 | 99 | 1007.7 |
| 20260509145019 | 50 | 23 | 0.0 | 1.7 | 0.05 | 0.32 | 0.32 | 99 | 1008.0 |
| 20260509144516 | 50 | 77 | 0.9 | 1.7 | 0.07 | 0.32 | 0.32 | 99 | 1007.9 |
| 20260509144013 | 50 | 127 | 1.7 | 3.5 | 0.02 | 0.31 | 0.31 | 99 | 1008.2 |
| 20260509143510 | 50 | 111 | 0.9 | 1.7 | 0.02 | 0.30 | 0.30 | 99 | 1008.2 |
| 20260509143008 | 50 | 68 | 0.9 | 2.6 | 0.05 | 0.30 | 0.30 | 99 | 1008.1 |
| 20260509142504 | 50 | 121 | 0.0 | 1.7 | 0.05 | 0.30 | 0.30 | 99 | 1008.1 |
| 20260509141959 | 50 | 127 | 0.9 | 1.7 | 0.02 | 0.29 | 0.29 | 99 | 1008.1 |
| 20260509141455 | 49 | 177 | 0.9 | 1.7 | 0.02 | 0.29 | 0.29 | 99 | 1008.1 |
| 20260509140953 | 49 | 202 | 0.0 | 1.7 | 0.02 | 0.29 | 0.29 | 99 | 1008.1 |
| 20260509140449 | 49 | 113 | 0.9 | 1.7 | 0.05 | 0.29 | 0.29 | 99 | 1008.3 |
| 20260509135947 | 49 | 124 | 0.0 | 1.7 | 0.05 | 0.28 | 0.28 | 99 | 1008.1 |
| 20260509135444 | 49 | 33 | 0.0 | 1.7 | 0.05 | 0.28 | 0.28 | 99 | 1008.3 |
| 20260509134941 | 49 | 347 | 0.9 | 1.7 | 0.05 | 0.28 | 0.28 | 99 | 1008.0 |
| 20260509134439 | 49 | 336 | 0.0 | 1.7 | 0.02 | 0.27 | 0.27 | 99 | 1008.1 |
| 20260509133937 | 49 | 272 | 0.9 | 2.6 | 0.02 | 0.27 | 0.27 | 99 | 1008.3 |
| 20260509133433 | 49 | 120 | 0.9 | 1.7 | 0.05 | 0.27 | 0.27 | 99 | 1008.1 |
| 20260509132931 | 49 | 208 | 1.7 | 3.5 | 0.05 | 0.26 | 0.26 | 99 | 1008.3 |
| 20260509132429 | 48 | 171 | 0.0 | 2.6 | 0.05 | 0.26 | 0.26 | 99 | 1008.1 |
| 20260509131925 | 48 | 237 | 2.6 | 4.3 | 0.05 | 0.26 | 0.26 | 99 | 1008.4 |
| 20260509131423 | 48 | 310 | 1.7 | 2.6 | 0.02 | 0.25 | 0.25 | 99 | 1008.4 |
| 20260509130919 | 48 | 267 | 1.7 | 2.6 | 0.02 | 0.25 | 0.25 | 99 | 1008.3 |
| 20260509130414 | 48 | 184 | 0.0 | 2.6 | 0.02 | 0.24 | 0.24 | 99 | 1008.4 |
| 20260509125912 | 48 | 128 | 2.6 | 2.6 | 0.05 | 0.24 | 0.24 | 99 | 1008.4 |
| 20260509125409 | 48 | 82 | 0.0 | 1.7 | 0.05 | 0.24 | 0.24 | 99 | 1008.4 |
| 20260509124904 | 47 | 343 | 0.0 | 1.7 | 0.05 | 0.23 | 0.23 | 99 | 1008.2 |
| 20260509124402 | 47 | 12 | 0.0 | 2.6 | 0.07 | 0.23 | 0.23 | 99 | 1008.4 |
| 20260509123859 | 47 | 127 | 2.6 | 2.6 | 0.09 | 0.22 | 0.22 | 99 | 1008.4 |
| 20260509123356 | 47 | 48 | 2.6 | 2.6 | 0.09 | 0.22 | 0.22 | 99 | 1008.4 |
| 20260509122852 | 47 | 34 | 2.6 | 2.6 | 0.14 | 0.21 | 0.21 | 99 | 1008.6 |
| 20260509122349 | 46 | 58 | 2.6 | 2.6 | 0.12 | 0.20 | 0.20 | 99 | 1008.6 |
| 20260509121846 | 46 | 29 | 1.7 | 3.5 | 0.07 | 0.18 | 0.18 | 99 | 1008.8 |
| 20260509121343 | 45 | 100 | 0.9 | 2.6 | 0.09 | 0.18 | 0.18 | 99 | 1008.9 |
| 20260509120841 | 45 | 38 | 1.7 | 1.7 | 0.09 | 0.17 | 0.17 | 99 | 1008.7 |
| 20260509120339 | 45 | 75 | 0.9 | 2.6 | 0.07 | 0.17 | 0.17 | 99 | 1008.8 |
| 20260509115837 | 44 | 77 | 0.9 | 1.7 | 0.05 | 0.16 | 0.16 | 99 | 1008.9 |
| 20260509115333 | 44 | 70 | 1.7 | 1.7 | 0.05 | 0.15 | 0.15 | 99 | 1008.7 |
| 20260509114831 | 44 | 72 | 1.7 | 2.6 | 0.05 | 0.15 | 0.15 | 99 | 1008.8 |
| 20260509114330 | 44 | 50 | 1.7 | 1.7 | 0.07 | 0.15 | 0.15 | 99 | 1009.0 |
| 20260509113829 | 43 | 38 | 1.7 | 2.6 | 0.05 | 0.14 | 0.14 | 99 | 1008.7 |
| 20260509113325 | 43 | 76 | 1.7 | 2.6 | 0.05 | 0.13 | 0.13 | 99 | 1008.8 |
| 20260509112822 | 43 | 73 | 2.6 | 2.6 | 0.05 | 0.13 | 0.13 | 99 | 1008.7 |
| 20260509112319 | 43 | 72 | 1.7 | 1.7 | 0.07 | 0.13 | 0.13 | 99 | 1008.9 |
| 20260509111816 | 43 | 89 | 1.7 | 1.7 | 0.07 | 0.12 | 0.12 | 99 | 1008.8 |
| 20260509111313 | 43 | 95 | 1.7 | 2.6 | 0.07 | 0.11 | 0.11 | 99 | 1008.7 |
| 20260509110811 | 43 | 83 | 1.7 | 2.6 | 0.07 | 0.11 | 0.11 | 99 | 1008.7 |
| 20260509110307 | 43 | 87 | 1.7 | 1.7 | 0.07 | 0.10 | 0.10 | 99 | 1008.4 |
| 20260509105805 | 42 | 39 | 0.9 | 1.7 | 0.07 | 0.09 | 0.09 | 99 | 1008.6 |
| 20260509105306 | 42 | 51 | 0.0 | 1.7 | 0.09 | 0.09 | 0.09 | 99 | 1008.4 |
| 20260509104759 | 42 | 81 | 1.7 | 2.6 | 0.09 | 0.08 | 0.08 | 99 | 1008.4 |
| 20260509104256 | 42 | 74 | 1.7 | 1.7 | 0.07 | 0.07 | 0.07 | 99 | 1008.5 |
| 20260509103754 | 42 | 74 | 1.7 | 1.7 | 0.07 | 0.07 | 0.07 | 99 | 1008.6 |
| 20260509103251 | 42 | 63 | 1.7 | 1.7 | 0.07 | 0.06 | 0.06 | 99 | 1008.7 |
| 20260509102749 | 42 | 49 | 1.7 | 2.6 | 0.07 | 0.06 | 0.06 | 99 | 1008.7 |
| 20260509102246 | 42 | 89 | 2.6 | 2.6 | 0.05 | 0.05 | 0.05 | 99 | 1008.7 |
| 20260509101743 | 42 | 92 | 0.9 | 1.7 | 0.05 | 0.04 | 0.04 | 99 | 1008.8 |
| 20260509101239 | 42 | 97 | 0.9 | 1.7 | 0.02 | 0.04 | 0.04 | 99 | 1008.7 |
| 20260509100736 | 42 | 87 | 1.7 | 1.7 | 0.02 | 0.04 | 0.04 | 99 | 1008.4 |
| 20260509100233 | 42 | 45 | 1.7 | 2.6 | 0.05 | 0.04 | 0.04 | 99 | 1008.4 |
| 20260509095730 | 42 | 62 | 1.7 | 2.6 | 0.02 | 0.03 | 0.03 | 99 | 1008.3 |
| 20260509095227 | 41 | 59 | 1.7 | 1.7 | 0.00 | 0.03 | 0.03 | 99 | 1008.6 |
| 20260509094724 | 41 | 84 | 1.7 | 1.7 | 0.00 | 0.03 | 0.03 | 99 | 1008.6 |
| 20260509094221 | 41 | 81 | 1.7 | 1.7 | 0.00 | 0.03 | 0.03 | 99 | 1008.3 |
| 20260509093719 | 41 | 56 | 2.6 | 2.6 | 0.00 | 0.03 | 0.03 | 99 | 1008.2 |
| 20260509093216 | 41 | 38 | 2.6 | 2.6 | 0.00 | 0.03 | 0.03 | 99 | 1008.2 |
| 20260509092714 | 41 | 82 | 1.7 | 1.7 | 0.00 | 0.03 | 0.03 | 99 | 1008.6 |
| 20260509092212 | 41 | 72 | 0.9 | 1.7 | 0.00 | 0.03 | 0.03 | 99 | 1008.6 |
| 20260509091710 | 41 | 73 | 1.7 | 1.7 | 0.00 | 0.03 | 0.03 | 99 | 1008.5 |
| 20260509091205 | 41 | 62 | 1.7 | 1.7 | 0.00 | 0.03 | 0.03 | 99 | 1008.6 |
| 20260509090704 | 41 | 75 | 1.7 | 2.6 | 0.02 | 0.03 | 0.03 | 99 | 1008.5 |
| 20260509090200 | 41 | 57 | 0.9 | 1.7 | 0.02 | 0.03 | 0.03 | 99 | 1008.5 |
| 20260509085658 | 41 | 73 | 1.7 | 2.6 | 0.02 | 0.02 | 0.02 | 99 | 1008.5 |
| 20260509085154 | 41 | 69 | 1.7 | 1.7 | 0.02 | 0.02 | 0.02 | 99 | 1008.8 |
| 20260509084652 | 41 | 53 | 1.7 | 1.7 | 0.00 | 0.02 | 0.02 | 99 | 1008.8 |
| 20260509084148 | 41 | 78 | 1.7 | 1.7 | 0.00 | 0.02 | 0.02 | 99 | 1008.9 |
| 20260509083646 | 41 | 78 | 1.7 | 2.6 | 0.00 | 0.02 | 0.02 | 99 | 1008.7 |
| 20260509083142 | 41 | 60 | 1.7 | 2.6 | 0.00 | 0.02 | 0.02 | 99 | 1008.5 |
| 20260509082640 | 41 | 86 | 1.7 | 1.7 | 0.00 | 0.02 | 0.02 | 99 | 1008.8 |
| 20260509082136 | 41 | 89 | 0.0 | 1.7 | 0.02 | 0.02 | 0.02 | 99 | 1009.0 |
| 20260509081633 | 41 | 86 | 1.7 | 1.7 | 0.02 | 0.02 | 0.02 | 99 | 1008.8 |
| 20260509081131 | 41 | 34 | 0.0 | 0.9 | 0.00 | 0.02 | 0.02 | 99 | 1008.9 |
| 20260509080629 | 41 | 57 | 1.7 | 1.7 | 0.00 | 0.02 | 0.02 | 99 | 1008.9 |
| 20260509080126 | 41 | 50 | 0.9 | 1.7 | 0.00 | 0.02 | 0.02 | 99 | 1009.3 |
| 20260509075624 | 41 | 55 | 1.7 | 1.7 | 0.00 | 0.02 | 0.02 | 98 | 1009.3 |
| 20260509075121 | 41 | 61 | 1.7 | 1.7 | 0.00 | 0.02 | 0.02 | 98 | 1009.3 |
| 20260509074618 | 41 | 62 | 1.7 | 1.7 | 0.00 | 0.02 | 0.02 | 98 | 1009.2 |
| 20260509074115 | 41 | 87 | 0.9 | 1.7 | 0.00 | 0.02 | 0.02 | 98 | 1009.0 |
| 20260509073611 | 41 | 54 | 1.7 | 1.7 | 0.00 | 0.02 | 0.02 | 98 | 1009.0 |
| 20260509073108 | 41 | 56 | 1.7 | 1.7 | 0.00 | 0.02 | 0.02 | 98 | 1009.2 |
| 20260509072605 | 41 | 84 | 1.7 | 2.6 | 0.00 | 0.02 | 0.02 | 98 | 1009.0 |
| 20260509072101 | 41 | 61 | 0.9 | 1.7 | 0.00 | 0.02 | 0.02 | 98 | 1008.9 |
| 20260509071558 | 41 | 57 | 1.7 | 2.6 | 0.00 | 0.02 | 0.02 | 97 | 1008.9 |
| 20260509071055 | 41 | 79 | 1.7 | 1.7 | 0.02 | 0.02 | 0.02 | 97 | 1008.8 |
| 20260509070553 | 41 | 73 | 1.7 | 1.7 | 0.02 | 0.02 | 0.02 | 97 | 1008.8 |
| 20260509070049 | 41 | 59 | 1.7 | 1.7 | 0.00 | 0.01 | 0.01 | 96 | 1009.0 |
| 20260509065544 | 41 | 52 | 1.7 | 1.7 | 0.00 | 0.01 | 0.01 | 96 | 1009.0 |
| 20260509065041 | 41 | 67 | 1.7 | 1.7 | 0.00 | 0.01 | 0.01 | 96 | 1009.0 |
| 20260509064539 | 41 | 64 | 1.7 | 1.7 | 0.00 | 0.01 | 0.01 | 96 | 1009.1 |
| 20260509064037 | 41 | 67 | 1.7 | 1.7 | 0.02 | 0.01 | 0.01 | 95 | 1009.2 |
| 20260509063531 | 41 | 44 | 1.7 | 1.7 | 0.02 | 0.01 | 0.01 | 95 | 1009.3 |
| 20260509063029 | 41 | 54 | 1.7 | 1.7 | 0.00 | 0.01 | 0.01 | 95 | 1009.3 |
| 20260509062526 | 41 | 41 | 0.9 | 1.7 | 0.02 | 0.01 | 0.01 | 94 | 1009.3 |
| 20260509062024 | 41 | 62 | 1.7 | 1.7 | 0.02 | 0.01 | 0.01 | 94 | 1009.5 |
| 20260509061520 | 41 | 56 | 1.7 | 2.6 | 0.00 | 0.00 | 0.00 | 93 | 1009.5 |
| 20260509061018 | 41 | 52 | 1.7 | 1.7 | 0.02 | 0.00 | 0.00 | 93 | 1009.8 |
| 20260509060515 | 41 | 72 | 1.7 | 1.7 | 0.02 | 0.00 | 0.00 | 93 | 1009.5 |
| 20260509060011 | 41 | 65 | 1.7 | 1.7 | 0.00 | 0.00 | 0.00 | 92 | 1009.6 |
| 20260509055506 | 41 | 63 | 1.7 | 1.7 | 0.00 | 0.00 | 0.00 | 92 | 1009.7 |
| 20260509055003 | 41 | 27 | 0.9 | 1.7 | 0.00 | 0.00 | 0.00 | 92 | 1009.8 |
| 20260509054459 | 41 | 61 | 1.7 | 2.6 | 0.00 | 0.00 | 0.00 | 92 | 1009.7 |
| 20260509053957 | 41 | 50 | 1.7 | 2.6 | 0.00 | 0.00 | 0.00 | 91 | 1009.8 |
| 20260509053455 | 41 | 43 | 2.6 | 2.6 | 0.00 | 0.00 | 0.00 | 91 | 1009.9 |
| 20260509052952 | 41 | 40 | 1.7 | 1.7 | 0.00 | 0.00 | 0.00 | 91 | 1009.7 |
| 20260509052450 | 41 | 65 | 1.7 | 2.6 | 0.00 | 0.00 | 0.00 | 92 | 1009.8 |
| 20260509051947 | 41 | 72 | 1.7 | 1.7 | 0.00 | 0.00 | 0.00 | 92 | 1009.8 |
| 20260509051445 | 41 | 55 | 1.7 | 1.7 | 0.00 | 0.00 | 0.00 | 92 | 1009.8 |
| 20260509050942 | 41 | 55 | 1.7 | 1.7 | 0.00 | 0.00 | 0.00 | 92 | 1009.7 |
| 20260509050438 | 41 | 55 | 1.7 | 1.7 | 0.00 | 0.00 | 0.00 | 92 | 1009.8 |
| 20260509045935 | 41 | 41 | 1.7 | 2.6 | 0.00 | 0.00 | 0.00 | 91 | 1009.6 |
| 20260509045432 | 41 | 45 | 1.7 | 2.6 | 0.00 | 0.00 | 0.00 | 91 | 1009.6 |
| 20260509044929 | 41 | 41 | 1.7 | 2.6 | 0.00 | 0.00 | 0.00 | 91 | 1009.9 |
| 20260509044427 | 41 | 61 | 1.7 | 2.6 | 0.00 | 0.00 | 0.00 | 90 | 1009.9 |
| 20260509043924 | 41 | 74 | 1.7 | 2.6 | 0.00 | 0.00 | 0.00 | 90 | 1009.9 |
| 20260509043419 | 41 | 42 | 1.7 | 1.7 | 0.00 | 0.00 | 0.00 | 91 | 1009.8 |
| 20260509042915 | 41 | 67 | 1.7 | 2.6 | 0.00 | 0.00 | 0.00 | 91 | 1010.0 |
| 20260509042413 | 41 | 65 | 1.7 | 1.7 | 0.00 | 0.00 | 0.00 | 91 | 1009.9 |
| 20260509041909 | 41 | 44 | 1.7 | 1.7 | 0.00 | 0.00 | 0.00 | 92 | 1010.2 |
| 20260509041406 | 41 | 60 | 1.7 | 1.7 | 0.00 | 0.00 | 0.00 | 93 | 1010.4 |
| 20260509040904 | 41 | 57 | 1.7 | 1.7 | 0.00 | 0.00 | 0.00 | 92 | 1010.0 |
| 20260509040402 | 41 | 92 | 1.7 | 2.6 | 0.00 | 0.00 | 0.00 | 92 | 1010.2 |
| 20260509035859 | 41 | 86 | 1.7 | 1.7 | 0.00 | 0.00 | 0.00 | 91 | 1010.0 |
| 20260509035356 | 41 | 74 | 1.7 | 1.7 | 0.00 | 0.00 | 0.00 | 91 | 1010.2 |
| 20260509034852 | 40 | 60 | 1.7 | 1.7 | 0.00 | 0.00 | 0.00 | 91 | 1010.1 |
| 20260509034350 | 40 | 78 | 1.7 | 1.7 | 0.00 | 0.00 | 0.00 | 90 | 1010.1 |
| 20260509033847 | 41 | 73 | 1.7 | 1.7 | 0.00 | 0.00 | 0.00 | 90 | 1010.0 |
| 20260509033344 | 41 | 48 | 1.7 | 1.7 | 0.00 | 0.00 | 0.00 | 89 | 1010.2 |
| 20260509032840 | 40 | 294 | 0.9 | 1.7 | 0.00 | 0.00 | 0.00 | 90 | 1010.0 |
| 20260509032337 | 40 | 30 | 0.9 | 1.7 | 0.00 | 0.00 | 0.00 | 91 | 1010.0 |
| 20260509031836 | 40 | 83 | 1.7 | 1.7 | 0.00 | 0.00 | 0.00 | 90 | 1010.0 |
| 20260509031332 | 40 | 85 | 1.7 | 1.7 | 0.00 | 0.00 | 0.00 | 89 | 1010.0 |
| 20260509030830 | 40 | 49 | 0.0 | 0.9 | 0.00 | 0.00 | 0.00 | 89 | 1010.0 |
| 20260509030327 | 40 | 67 | 0.9 | 1.7 | 0.00 | 0.00 | 0.00 | 88 | 1010.0 |
| 20260509025824 | 41 | 72 | 1.7 | 1.7 | 0.00 | 0.00 | 0.00 | 88 | 1010.1 |
| 20260509025320 | 41 | 58 | 1.7 | 1.7 | 0.00 | 0.00 | 0.00 | 88 | 1010.2 |
| 20260509024815 | 42 | 61 | 1.7 | 2.6 | 0.00 | 0.00 | 0.00 | 87 | 1010.2 |
| 20260509024312 | 42 | 79 | 0.9 | 0.9 | 0.00 | 0.00 | 0.00 | 85 | 1010.2 |
| 20260509023809 | 42 | 35 | 0.0 | 0.9 | 0.00 | 0.00 | 0.00 | 86 | 1010.0 |
| 20260509023306 | 42 | 13 | 0.0 | 0.9 | 0.00 | 0.00 | 0.00 | 85 | 1010.0 |
| 20260509022802 | 42 | 44 | 0.0 | 1.7 | 0.00 | 0.00 | 0.00 | 85 | 1010.0 |
| 20260509022300 | 43 | 81 | 1.7 | 1.7 | 0.00 | 0.00 | 0.00 | 84 | 1010.2 |
| 20260509021756 | 43 | 7 | 0.9 | 0.9 | 0.00 | 0.00 | 0.00 | 83 | 1010.1 |
| 20260509021254 | 43 | 47 | 0.9 | 2.6 | 0.00 | 0.00 | 0.00 | 83 | 1010.1 |
| 20260509020751 | 44 | 31 | 2.6 | 2.6 | 0.00 | 0.00 | 0.00 | 83 | 1010.0 |
| 20260509020249 | 44 | 84 | 1.7 | 1.7 | 0.00 | 0.00 | 0.00 | 80 | 1010.0 |
| 20260509015747 | 44 | 3 | 0.9 | 0.9 | 0.00 | 0.00 | 0.00 | 81 | 1010.1 |
| 20260509015245 | 45 | 21 | 0.0 | 1.7 | 0.00 | 0.00 | 0.00 | 79 | 1010.0 |
| 20260509014741 | 45 | 74 | 0.9 | 1.7 | 0.00 | 0.00 | 0.00 | 79 | 1009.9 |
| 20260509014238 | 45 | 41 | 1.7 | 1.7 | 0.00 | 0.00 | 0.00 | 79 | 1009.9 |
| 20260509013734 | 45 | 38 | 0.0 | 1.7 | 0.00 | 0.00 | 0.00 | 78 | 1010.0 |
| 20260509013230 | 45 | 63 | 1.7 | 2.6 | 0.00 | 0.00 | 0.00 | 78 | 1010.1 |
| 20260509012727 | 46 | 24 | 0.9 | 1.7 | 0.00 | 0.00 | 0.00 | 78 | 1010.0 |
| 20260509012223 | 46 | 61 | 1.7 | 2.6 | 0.00 | 0.00 | 0.00 | 78 | 1009.7 |
| 20260509011721 | 46 | 100 | 1.7 | 1.7 | 0.00 | 0.00 | 0.00 | 77 | 1009.9 |
| 20260509011219 | 46 | 51 | 1.7 | 2.6 | 0.00 | 0.00 | 0.00 | 78 | 1009.7 |
| 20260509010716 | 46 | 26 | 1.7 | 1.7 | 0.00 | 0.00 | 0.00 | 78 | 1009.8 |
| 20260509010212 | 46 | 84 | 1.7 | 2.6 | 0.00 | 0.00 | 0.00 | 77 | 1009.5 |
| 20260509005710 | 46 | 124 | 0.0 | 1.7 | 0.00 | 0.00 | 0.00 | 76 | 1009.6 |
| 20260509005207 | 46 | 73 | 1.7 | 1.7 | 0.00 | 0.00 | 0.00 | 75 | 1009.4 |
| 20260509004702 | 47 | 26 | 0.9 | 1.7 | 0.00 | 0.00 | 0.00 | 73 | 1009.4 |
| 20260509004159 | 47 | 44 | 0.0 | 1.7 | 0.00 | 0.00 | 0.00 | 73 | 1009.3 |
| 20260509003658 | 47 | 81 | 0.9 | 1.7 | 0.00 | 0.00 | 0.00 | 71 | 1009.1 |
| 20260509003155 | 48 | 52 | 0.9 | 1.7 | 0.00 | 0.00 | 0.00 | 69 | 1009.2 |
| 20260509002652 | 48 | 36 | 0.9 | 1.7 | 0.00 | 0.00 | 0.00 | 71 | 1009.0 |
| 20260509002149 | 49 | 36 | 0.0 | 0.9 | 0.00 | 0.00 | 0.00 | 70 | 1009.2 |
| 20260509001647 | 49 | 72 | 0.9 | 1.7 | 0.00 | 0.00 | 0.00 | 68 | 1009.2 |
| 20260509001142 | 49 | 38 | 0.0 | 0.0 | 0.00 | 0.00 | 0.00 | 67 | 1009.1 |
| 20260509000641 | 49 | 40 | 1.7 | 1.7 | 0.00 | 0.00 | 0.00 | 65 | 1008.8 |
| 20260509000137 | 49 | 45 | 2.6 | 2.6 | 0.00 | 0.00 | 0.00 | 65 | 1008.9 |
| 20260508235635 | 50 | 31 | 0.9 | 0.9 | 0.00 | 0.00 | 0.00 | 64 | 1008.8 |
| 20260508235131 | 50 | 52 | 0.9 | 0.9 | 0.00 | 0.00 | 0.00 | 63 | 1008.9 |
| 20260508234629 | 51 | 59 | 1.7 | 1.7 | 0.00 | 0.00 | 0.00 | 62 | 1008.9 |
| 20260508234125 | 51 | 352 | 0.0 | 0.9 | 0.00 | 0.00 | 0.00 | 64 | 1008.6 |